Weather History for Trinidad, CO

Change the Weather History Date:

Tuesday, October 8, 2013

  Actual Average Record
Temperature  
Mean Temperature 64 °F 55 °F  
Max Temperature 84 °F 71 °F 85 °F (1958)
Min Temperature 44 °F 39 °F 22 °F (1970)
Degree Days  
Heating Degree Days 1 10  
Month to date heating degree days 59 71  
Since 1 July heating degree days 100 181  
Cooling Degree Days 0 0  
Month to date cooling degree days 0 0  
Year to date cooling degree days 1068 716  
Growing Degree Days 14 (Base 50)    
Moisture  
Dew Point 19 °F    
Average Humidity 24    
Maximum Humidity 40    
Minimum Humidity 7    
Precipitation  
Precipitation 0.00 in 0.03 in 0.38 in (2006)
Month to date precipitation 0.00 0.21  
Year to date precipitation 9.44 11.91  
Sea Level Pressure  
Sea Level Pressure 29.71 in    
Wind  
Wind Speed 10 mph (WSW)    
Max Wind Speed 23 mph    
Max Gust Speed 29 mph    
Visibility 10 miles    
Events      
T = Trace of Precipitation, MM = Missing Value Source: NWS Daily Summary

Daily Weather History Graph

Daily Weather History Graph

Search for Another Location

Airport:

Trip Planner

Search our weather history database for the weather conditions in past years. The results will help you decide how hot, cold, wet, or windy it might be!

Date:

Astronomy

Oct. 08, 2013 Rise Set
Actual Time 6:59 AM MDT 6:29 PM MDT
Civil Twilight 6:33 AM MDT 6:55 PM MDT
Nautical Twilight 6:02 AM MDT 7:25 PM MDT
Astronomical Twilight 5:32 AM MDT 7:56 PM MDT
Moon 10:51 AM MDT (10/8) 9:13 PM MDT (10/8)
Length of Visible Light 12h 22m
Length of Day
11h 30m
Waxing Crescent, 16% of the Moon is Illuminated
Oct 8
Waxing Crescent
Oct 11
First Quarter
Oct 18
Full
Oct 26
Last Quarter
Nov 3
New

Hourly Weather History & Observations

Time (MDT) Temp. Windchill Dew Point Humidity Pressure Visibility Wind Dir Wind Speed Gust Speed Precip Events Conditions
12:54 AM 57.0 °F - 21.9 °F 26% 29.80 in 10.0 mi WSW 13.8 mph - N/A   Clear
1:54 AM 55.9 °F - 21.9 °F 27% 29.80 in 10.0 mi Variable 3.5 mph - N/A   Clear
3:54 AM 50.0 °F - 21.0 °F 32% 29.77 in 10.0 mi West 12.7 mph - N/A   Clear
4:54 AM 45.0 °F 39.7 °F 21.9 °F 40% 29.78 in 10.0 mi WNW 10.4 mph - N/A   Clear
5:54 AM 48.0 °F - 19.9 °F 33% 29.77 in 10.0 mi West 9.2 mph - N/A   Clear
6:54 AM 48.0 °F - 21.0 °F 34% 29.79 in 10.0 mi West 8.1 mph - N/A   Clear
7:54 AM 54.0 °F - 17.1 °F 23% 29.79 in 10.0 mi West 8.1 mph - N/A   Clear
8:54 AM 55.9 °F - 21.9 °F 27% 29.78 in 10.0 mi West 6.9 mph - N/A   Clear
9:54 AM 63.0 °F - 26.1 °F 25% 29.76 in 10.0 mi West 5.8 mph - N/A   Clear
10:54 AM 71.1 °F - 19.0 °F 14% 29.73 in 10.0 mi ENE 3.5 mph - N/A   Clear
11:54 AM 77.0 °F - 14.0 °F 9% 29.70 in 10.0 mi ENE 5.8 mph - N/A   Clear
12:54 PM 79.0 °F - 14.0 °F 9% 29.67 in 10.0 mi Variable 6.9 mph - N/A   Clear
1:54 PM 80.1 °F - 18.0 °F 10% 29.63 in 10.0 mi East 9.2 mph - N/A   Clear
2:54 PM 84.0 °F - 14.0 °F 7% 29.61 in 10.0 mi WSW 19.6 mph 25.3 mph N/A   Clear
3:54 PM 82.0 °F - 12.0 °F 7% 29.62 in 10.0 mi WSW 16.1 mph 21.9 mph N/A   Clear
4:54 PM 81.0 °F - 10.9 °F 7% 29.62 in 10.0 mi SW 18.4 mph 23.0 mph N/A   Clear
5:06 PM 80.6 °F - 10.4 °F 7% 29.83 in 10.0 mi SW 17.3 mph 24.2 mph N/A   Clear
5:54 PM 77.0 °F - 14.0 °F 9% 29.63 in 10.0 mi SSW 15.0 mph - N/A   Clear
6:54 PM 64.9 °F - 16.0 °F 15% 29.68 in 10.0 mi SW 10.4 mph - N/A   Clear
7:54 PM 64.0 °F - 18.0 °F 17% 29.68 in 10.0 mi WSW 12.7 mph - N/A   Clear
8:54 PM 64.0 °F - 21.9 °F 20% 29.68 in 10.0 mi SW 16.1 mph - N/A   Clear
9:54 PM 64.0 °F - 23.0 °F 21% 29.68 in 10.0 mi WSW 16.1 mph - N/A   Clear
10:54 PM 62.1 °F - 24.1 °F 23% 29.67 in 10.0 mi WSW 9.2 mph - N/A   Clear
11:54 PM 57.9 °F - 26.1 °F 30% 29.67 in 10.0 mi West 5.8 mph - N/A   Clear